| time (UTC) | temp F | wind direction | speed MPH | gust MPH | rain 1hr in | rain 24hr in | rain mn in | humidity % | barometer mb |
| 20260504214004 | 67 | 278 | 2.0 | 7.0 | 0.00 | 0.00 | 0.00 | 36 | 1007.7 |
| 20260504213503 | 67 | 302 | 1.0 | 7.0 | 0.00 | 0.00 | 0.00 | 34 | 1007.7 |
| 20260504213006 | 68 | 201 | 2.0 | 12.0 | 0.00 | 0.00 | 0.00 | 33 | 1007.7 |
| 20260504212503 | 68 | 183 | 5.0 | 12.0 | 0.00 | 0.00 | 0.00 | 31 | 1007.6 |
| 20260504212004 | 69 | 250 | 6.0 | 12.0 | 0.00 | 0.00 | 0.00 | 31 | 1007.7 |
| 20260504211502 | 69 | 216 | 4.0 | 12.0 | 0.00 | 0.00 | 0.00 | 30 | 1007.6 |
| 20260504211002 | 69 | 232 | 7.0 | 12.0 | 0.00 | 0.00 | 0.00 | 29 | 1007.6 |
| 20260504210503 | 70 | 233 | 4.0 | 11.0 | 0.00 | 0.00 | 0.00 | 31 | 1007.7 |
| 20260504210007 | 70 | 256 | 4.0 | 10.0 | 0.00 | 0.00 | 0.00 | 30 | 1007.6 |
| 20260504205504 | 70 | 205 | 3.0 | 10.0 | 0.00 | 0.00 | 0.00 | 30 | 1007.6 |
| 20260504205000 | 71 | 227 | 4.0 | 11.0 | 0.00 | 0.00 | 0.00 | 30 | 1007.6 |
| 20260504204505 | 71 | 278 | 5.0 | 11.0 | 0.00 | 0.00 | 0.00 | 29 | 1007.6 |
| 20260504204003 | 71 | 263 | 4.0 | 9.0 | 0.00 | 0.00 | 0.00 | 29 | 1007.6 |
| 20260504203503 | 71 | 242 | 3.0 | 10.0 | 0.00 | 0.00 | 0.00 | 30 | 1007.6 |
| 20260504203003 | 71 | 256 | 4.0 | 10.0 | 0.00 | 0.00 | 0.00 | 30 | 1007.6 |
| 20260504202503 | 71 | 231 | 5.0 | 9.0 | 0.00 | 0.00 | 0.00 | 29 | 1007.6 |
| 20260504202003 | 72 | 240 | 4.0 | 10.0 | 0.00 | 0.00 | 0.00 | 29 | 1007.6 |
| 20260504201503 | 71 | 234 | 5.0 | 11.0 | 0.00 | 0.00 | 0.00 | 28 | 1007.6 |
| 20260504201007 | 71 | 244 | 6.0 | 11.0 | 0.00 | 0.00 | 0.00 | 30 | 1007.6 |
| 20260504200503 | 71 | 247 | 2.0 | 11.0 | 0.00 | 0.00 | 0.00 | 30 | 1007.7 |
| 20260504200010 | 70 | 240 | 6.0 | 11.0 | 0.00 | 0.00 | 0.00 | 29 | 1007.8 |
| 20260504195506 | 70 | 192 | 5.0 | 19.0 | 0.00 | 0.00 | 0.00 | 29 | 1007.7 |
| 20260504195002 | 70 | 215 | 10.0 | 19.0 | 0.00 | 0.00 | 0.00 | 28 | 1007.8 |
| 20260504194508 | 71 | 227 | 5.0 | 11.0 | 0.00 | 0.00 | 0.00 | 28 | 1007.9 |
| 20260504194004 | 71 | 228 | 4.0 | 8.0 | 0.00 | 0.00 | 0.00 | 28 | 1007.8 |
| 20260504193504 | 71 | 189 | 5.0 | 15.0 | 0.00 | 0.00 | 0.00 | 29 | 1007.9 |
| 20260504193010 | 70 | 235 | 6.0 | 15.0 | 0.00 | 0.00 | 0.00 | 29 | 1007.9 |
| 20260504192503 | 71 | 215 | 4.0 | 10.0 | 0.00 | 0.00 | 0.00 | 29 | 1007.9 |
| 20260504192007 | 70 | 225 | 5.0 | 17.0 | 0.00 | 0.00 | 0.00 | 30 | 1007.8 |
| 20260504191508 | 70 | 183 | 5.0 | 17.0 | 0.00 | 0.00 | 0.00 | 28 | 1007.8 |
| 20260504191003 | 70 | 261 | 9.0 | 16.0 | 0.00 | 0.00 | 0.00 | 28 | 1008.0 |
| 20260504190502 | 70 | 215 | 5.0 | 11.0 | 0.00 | 0.00 | 0.00 | 29 | 1007.8 |
| 20260504190009 | 70 | 240 | 4.0 | 15.0 | 0.00 | 0.00 | 0.00 | 28 | 1007.9 |
| 20260504185505 | 70 | 242 | 7.0 | 15.0 | 0.00 | 0.00 | 0.00 | 27 | 1008.1 |
| 20260504185002 | 71 | 234 | 6.0 | 17.0 | 0.00 | 0.00 | 0.00 | 27 | 1008.2 |
| 20260504184508 | 69 | 249 | 7.0 | 17.0 | 0.00 | 0.00 | 0.00 | 27 | 1008.2 |
| 20260504184004 | 70 | 253 | 5.0 | 12.0 | 0.00 | 0.00 | 0.00 | 27 | 1008.3 |
| 20260504183502 | 70 | 261 | 4.0 | 11.0 | 0.00 | 0.00 | 0.00 | 27 | 1008.3 |
| 20260504183005 | 71 | 240 | 7.0 | 11.0 | 0.00 | 0.00 | 0.00 | 26 | 1008.4 |
| 20260504182501 | 70 | 212 | 5.0 | 14.0 | 0.00 | 0.00 | 0.00 | 28 | 1008.4 |
| 20260504182001 | 71 | 232 | 6.0 | 15.0 | 0.00 | 0.00 | 0.00 | 26 | 1008.3 |
| 20260504181510 | 70 | 236 | 7.0 | 15.0 | 0.00 | 0.00 | 0.00 | 26 | 1008.5 |
| 20260504181002 | 70 | 249 | 7.0 | 15.0 | 0.00 | 0.00 | 0.00 | 27 | 1008.5 |
| 20260504180502 | 70 | 220 | 6.0 | 15.0 | 0.00 | 0.00 | 0.00 | 29 | 1008.5 |
| 20260504180010 | 70 | 250 | 6.0 | 13.0 | 0.00 | 0.00 | 0.00 | 25 | 1008.5 |
| 20260504175504 | 70 | 199 | 6.0 | 12.0 | 0.00 | 0.00 | 0.00 | 26 | 1008.5 |
| 20260504175004 | 69 | 267 | 5.0 | 15.0 | 0.00 | 0.00 | 0.00 | 27 | 1008.7 |
| 20260504174508 | 69 | 220 | 6.0 | 16.0 | 0.00 | 0.00 | 0.00 | 28 | 1008.7 |
| 20260504174007 | 69 | 277 | 7.0 | 20.0 | 0.00 | 0.00 | 0.00 | 28 | 1008.6 |
| 20260504173504 | 68 | 188 | 7.0 | 20.0 | 0.00 | 0.00 | 0.00 | 28 | 1008.8 |
| 20260504173008 | 69 | 225 | 6.0 | 14.0 | 0.00 | 0.00 | 0.00 | 27 | 1008.8 |
| 20260504172504 | 69 | 204 | 5.0 | 14.0 | 0.00 | 0.00 | 0.00 | 28 | 1008.9 |
| 20260504172001 | 69 | 192 | 6.0 | 13.0 | 0.00 | 0.00 | 0.00 | 29 | 1008.9 |
| 20260504171518 | 68 | 253 | 6.0 | 12.0 | 0.00 | 0.00 | 0.00 | 28 | 1008.8 |
| 20260504171003 | 67 | 237 | 6.0 | 19.0 | 0.00 | 0.00 | 0.00 | 28 | 1008.9 |
| 20260504170502 | 67 | 241 | 9.0 | 19.0 | 0.00 | 0.00 | 0.00 | 28 | 1008.7 |
| 20260504151004 | 64 | 240 | 8.0 | 19.0 | 0.00 | 0.00 | 0.00 | 33 | 1010.1 |
| 20260504150504 | 63 | 254 | 6.0 | 15.0 | 0.00 | 0.00 | 0.00 | 35 | 1010.1 |
| 20260504141004 | 62 | 267 | 6.0 | 13.0 | 0.00 | 0.00 | 0.00 | 36 | 1010.3 |
| 20260504140508 | 61 | 223 | 5.0 | 10.0 | 0.00 | 0.00 | 0.00 | 36 | 1010.3 |
| 20260504130508 | 56 | 277 | 3.0 | 7.0 | 0.00 | 0.00 | 0.00 | 46 | 1011.0 |
| 20260504110504 | 46 | 238 | 3.0 | 8.0 | 0.00 | 0.00 | 0.00 | 55 | 1011.1 |
| 20260504100504 | 0 | 0.0 | 0.0 | 0.00 | 0.00 | 0.00 | 1011.1 | ||
| 20260504082004 | 46 | 233 | 1.0 | 3.0 | 0.00 | 0.00 | 0.00 | 53 | 1010.7 |
| 20260504081518 | 46 | 219 | 2.0 | 3.0 | 0.00 | 0.00 | 0.00 | 52 | 1010.7 |
| 20260504081004 | 45 | 234 | 2.0 | 3.0 | 0.00 | 0.00 | 0.00 | 52 | 1010.7 |
| 20260504080503 | 45 | 220 | 1.0 | 2.0 | 0.00 | 0.00 | 0.00 | 52 | 1010.7 |
| 20260504050507 | 46 | 236 | 2.0 | 4.0 | 0.00 | 0.00 | 0.00 | 47 | 1011.0 |
| 20260504045511 | 46 | 215 | 2.0 | 3.0 | 0.00 | 0.00 | 0.00 | 48 | 1010.9 |
| 20260504045008 | 46 | 217 | 2.0 | 3.0 | 0.00 | 0.00 | 0.00 | 47 | 1010.9 |
| 20260504044532 | 46 | 234 | 1.0 | 4.0 | 0.00 | 0.00 | 0.00 | 47 | 1010.9 |
| 20260504044004 | 46 | 234 | 2.0 | 4.0 | 0.00 | 0.00 | 0.00 | 47 | 1011.0 |
| 20260504043504 | 46 | 233 | 2.0 | 4.0 | 0.00 | 0.00 | 0.00 | 47 | 1010.9 |
| 20260504043017 | 46 | 231 | 2.0 | 8.0 | 0.00 | 0.00 | 0.00 | 47 | 1010.9 |
| 20260504042503 | 45 | 236 | 3.0 | 8.0 | 0.00 | 0.00 | 0.00 | 47 | 1010.9 |
| 20260504042004 | 45 | 259 | 3.0 | 8.0 | 0.00 | 0.00 | 0.00 | 47 | 1011.0 |
| 20260504041519 | 45 | 236 | 3.0 | 8.0 | 0.00 | 0.00 | 0.00 | 47 | 1010.9 |
| 20260504041008 | 45 | 237 | 3.0 | 5.0 | 0.00 | 0.00 | 0.00 | 47 | 1010.8 |
| 20260504040507 | 45 | 244 | 3.0 | 8.0 | 0.00 | 0.00 | 0.00 | 47 | 1010.8 |
| 20260504040025 | 45 | 234 | 3.0 | 8.0 | 0.00 | 0.00 | 0.00 | 47 | 1010.8 |
| 20260504035508 | 45 | 234 | 3.0 | 7.0 | 0.00 | 0.00 | 0.00 | 47 | 1010.9 |
| 20260504035008 | 45 | 234 | 4.0 | 7.0 | 0.00 | 0.00 | 0.00 | 47 | 1010.8 |
| 20260504034525 | 45 | 232 | 3.0 | 7.0 | 0.00 | 0.00 | 0.00 | 47 | 1010.6 |
| 20260504034007 | 45 | 216 | 2.0 | 6.0 | 0.00 | 0.00 | 0.00 | 47 | 1010.5 |
| 20260504033508 | 45 | 221 | 3.0 | 6.0 | 0.00 | 0.00 | 0.00 | 47 | 1010.6 |
| 20260504033028 | 45 | 214 | 2.0 | 7.0 | 0.00 | 0.00 | 0.00 | 47 | 1010.6 |
| 20260504032504 | 45 | 237 | 3.0 | 7.0 | 0.00 | 0.00 | 0.00 | 47 | 1010.6 |
| 20260504032007 | 45 | 231 | 3.0 | 6.0 | 0.00 | 0.00 | 0.00 | 47 | 1010.6 |
| 20260504031515 | 44 | 224 | 3.0 | 8.0 | 0.00 | 0.00 | 0.00 | 48 | 1010.6 |
| 20260504031006 | 44 | 235 | 3.0 | 8.0 | 0.00 | 0.00 | 0.00 | 48 | 1010.5 |
| 20260504030507 | 44 | 222 | 4.0 | 6.0 | 0.00 | 0.00 | 0.00 | 48 | 1010.4 |
| 20260504030028 | 44 | 231 | 3.0 | 7.0 | 0.00 | 0.00 | 0.00 | 49 | 1010.4 |
| 20260504025509 | 43 | 234 | 3.0 | 7.0 | 0.00 | 0.00 | 0.00 | 49 | 1010.3 |
| 20260504025007 | 43 | 224 | 3.0 | 6.0 | 0.00 | 0.00 | 0.00 | 51 | 1010.3 |
| 20260504024525 | 43 | 243 | 2.0 | 6.0 | 0.00 | 0.00 | 0.00 | 50 | 1010.2 |
| 20260504024004 | 43 | 212 | 2.0 | 3.0 | 0.00 | 0.00 | 0.00 | 53 | 1010.2 |
| 20260504023503 | 43 | 218 | 1.0 | 3.0 | 0.00 | 0.00 | 0.00 | 54 | 1010.2 |
| 20260504023009 | 43 | 194 | 2.0 | 3.0 | 0.00 | 0.00 | 0.00 | 54 | 1010.2 |
| 20260504022505 | 43 | 198 | 2.0 | 3.0 | 0.00 | 0.00 | 0.00 | 54 | 1010.1 |
| 20260504022004 | 43 | 192 | 2.0 | 3.0 | 0.00 | 0.00 | 0.00 | 54 | 1010.2 |
| 20260504021512 | 43 | 196 | 2.0 | 3.0 | 0.00 | 0.00 | 0.00 | 54 | 1010.2 |
| 20260504021005 | 43 | 193 | 1.0 | 2.0 | 0.00 | 0.00 | 0.00 | 54 | 1010.1 |
| 20260504020505 | 43 | 197 | 1.0 | 2.0 | 0.00 | 0.00 | 0.00 | 54 | 1010.1 |
| 20260504020018 | 43 | 196 | 1.0 | 2.0 | 0.00 | 0.00 | 0.00 | 53 | 1010.1 |
| 20260504015504 | 44 | 187 | 1.0 | 2.0 | 0.00 | 0.00 | 0.00 | 53 | 1010.1 |
| 20260504015007 | 44 | 187 | 1.0 | 2.0 | 0.00 | 0.00 | 0.00 | 52 | 1010.1 |
| 20260504014520 | 44 | 188 | 1.0 | 2.0 | 0.00 | 0.00 | 0.00 | 52 | 1010.0 |
| 20260504014011 | 44 | 190 | 1.0 | 2.0 | 0.00 | 0.00 | 0.00 | 52 | 1010.0 |
| 20260504013509 | 44 | 190 | 1.0 | 2.0 | 0.00 | 0.00 | 0.00 | 51 | 1010.0 |
| 20260504013004 | 45 | 186 | 1.0 | 2.0 | 0.00 | 0.00 | 0.00 | 50 | 1009.9 |
| 20260504012508 | 45 | 185 | 1.0 | 2.0 | 0.00 | 0.00 | 0.00 | 50 | 1009.8 |
| 20260504012006 | 45 | 180 | 1.0 | 2.0 | 0.00 | 0.00 | 0.00 | 49 | 1009.8 |
| 20260504011511 | 45 | 178 | 1.0 | 2.0 | 0.00 | 0.00 | 0.00 | 49 | 1009.7 |
| 20260504011005 | 45 | 176 | 1.0 | 2.0 | 0.00 | 0.00 | 0.00 | 48 | 1009.7 |
| 20260504010506 | 46 | 183 | 1.0 | 2.0 | 0.00 | 0.00 | 0.00 | 48 | 1009.6 |
| 20260504010021 | 46 | 184 | 1.0 | 2.0 | 0.00 | 0.00 | 0.00 | 48 | 1009.5 |
| 20260504005506 | 46 | 183 | 0.0 | 0.0 | 0.00 | 0.00 | 0.00 | 49 | 1009.5 |
| 20260504005007 | 46 | 188 | 0.0 | 0.0 | 0.00 | 0.00 | 0.00 | 48 | 1009.4 |
| 20260504004522 | 47 | 193 | 0.0 | 1.0 | 0.00 | 0.00 | 0.00 | 46 | 1009.5 |
| 20260504004011 | 47 | 200 | 0.0 | 1.0 | 0.00 | 0.00 | 0.00 | 46 | 1009.4 |
| 20260504003509 | 47 | 211 | 0.0 | 2.0 | 0.00 | 0.00 | 0.00 | 45 | 1009.4 |
| 20260504003026 | 47 | 222 | 1.0 | 2.0 | 0.00 | 0.00 | 0.00 | 45 | 1009.3 |
| 20260504002509 | 47 | 243 | 0.0 | 1.0 | 0.00 | 0.00 | 0.00 | 44 | 1009.3 |
| 20260504002007 | 47 | 244 | 0.0 | 2.0 | 0.00 | 0.00 | 0.00 | 42 | 1009.1 |
| 20260504001512 | 48 | 244 | 0.0 | 2.0 | 0.00 | 0.00 | 0.00 | 41 | 1009.1 |
| 20260504001004 | 48 | 246 | 1.0 | 3.0 | 0.00 | 0.00 | 0.00 | 40 | 1009.1 |
| 20260504000503 | 48 | 230 | 1.0 | 3.0 | 0.00 | 0.00 | 0.00 | 40 | 1009.0 |
| 20260504000016 | 48 | 224 | 1.0 | 5.0 | 0.00 | 0.00 | 0.00 | 39 | 1008.9 |
| 20260503235504 | 49 | 264 | 2.0 | 5.0 | 0.00 | 0.00 | 0.00 | 39 | 1008.9 |
| 20260503235007 | 49 | 255 | 1.0 | 4.0 | 0.00 | 0.00 | 0.00 | 38 | 1008.9 |
| 20260503234526 | 49 | 279 | 2.0 | 5.0 | 0.00 | 0.00 | 0.00 | 39 | 1009.0 |
| 20260503234006 | 49 | 240 | 2.0 | 7.0 | 0.00 | 0.00 | 0.00 | 39 | 1008.9 |
| 20260503233509 | 49 | 268 | 4.0 | 9.0 | 0.00 | 0.00 | 0.00 | 38 | 1008.9 |
| 20260503233021 | 50 | 252 | 1.0 | 9.0 | 0.00 | 0.00 | 0.00 | 38 | 1008.9 |
| 20260503232507 | 50 | 301 | 2.0 | 9.0 | 0.00 | 0.00 | 0.00 | 38 | 1008.8 |
| 20260503232007 | 50 | 271 | 2.0 | 10.0 | 0.00 | 0.00 | 0.00 | 37 | 1008.7 |
| 20260503231527 | 50 | 218 | 4.0 | 11.0 | 0.00 | 0.00 | 0.00 | 38 | 1008.8 |
| 20260503231013 | 51 | 260 | 6.0 | 11.0 | 0.00 | 0.00 | 0.00 | 36 | 1008.8 |
| 20260503230512 | 51 | 245 | 6.0 | 12.0 | 0.00 | 0.00 | 0.00 | 37 | 1008.7 |
| 20260503230012 | 51 | 278 | 5.0 | 12.0 | 0.00 | 0.00 | 0.00 | 37 | 1008.5 |
| 20260503225503 | 51 | 321 | 5.0 | 11.0 | 0.00 | 0.00 | 0.00 | 37 | 1008.6 |
| 20260503225003 | 51 | 264 | 5.0 | 11.0 | 0.00 | 0.00 | 0.00 | 36 | 1008.5 |
| 20260503224516 | 51 | 292 | 4.0 | 13.0 | 0.00 | 0.00 | 0.00 | 37 | 1008.3 |
| 20260503224004 | 51 | 292 | 7.0 | 12.0 | 0.00 | 0.00 | 0.00 | 36 | 1008.3 |
| 20260503223505 | 51 | 260 | 6.0 | 12.0 | 0.00 | 0.00 | 0.00 | 36 | 1008.2 |
| 20260503223020 | 51 | 297 | 3.0 | 9.0 | 0.00 | 0.00 | 0.00 | 36 | 1008.2 |
| 20260503222509 | 51 | 241 | 4.0 | 9.0 | 0.00 | 0.00 | 0.00 | 37 | 1008.2 |
| 20260503222008 | 51 | 285 | 3.0 | 12.0 | 0.00 | 0.00 | 0.00 | 36 | 1008.1 |
| 20260503221525 | 51 | 245 | 3.0 | 12.0 | 0.00 | 0.00 | 0.00 | 36 | 1008.1 |
| 20260503221013 | 51 | 300 | 5.0 | 12.0 | 0.00 | 0.00 | 0.00 | 36 | 1008.1 |
| 20260503220510 | 51 | 298 | 5.0 | 12.0 | 0.00 | 0.00 | 0.00 | 37 | 1008.2 |
| 20260503220039 | 51 | 284 | 6.0 | 13.0 | 0.00 | 0.00 | 0.00 | 36 | 1008.2 |
| 20260503215509 | 50 | 324 | 3.0 | 13.0 | 0.00 | 0.00 | 0.00 | 36 | 1008.3 |
| 20260503215010 | 50 | 336 | 6.0 | 13.0 | 0.00 | 0.00 | 0.00 | 36 | 1008.2 |
| 20260503214512 | 51 | 306 | 6.0 | 13.0 | 0.00 | 0.00 | 0.00 | 36 | 1008.1 |